| time (UTC) | temp F | wind direction | speed MPH | gust MPH | rain 1hr in | rain 24hr in | rain mn in | humidity % | barometer mb |
| 20260504234528 | 86 | 273 | 32.0 | 40.0 | 0.00 | 0.00 | 0.00 | 16 | 995.4 |
| 20260504233019 | 86 | 243 | 27.0 | 38.0 | 0.00 | 0.00 | 0.00 | 16 | 995.8 |
| 20260504231532 | 85 | 275 | 21.0 | 32.0 | 0.00 | 0.00 | 0.00 | 16 | 996.1 |
| 20260504230016 | 85 | 277 | 22.0 | 33.0 | 0.00 | 0.00 | 0.00 | 15 | 996.2 |
| 20260504224518 | 85 | 261 | 27.0 | 35.0 | 0.00 | 0.00 | 0.00 | 15 | 996.3 |
| 20260504223015 | 85 | 257 | 23.0 | 32.0 | 0.00 | 0.00 | 0.00 | 15 | 996.5 |
| 20260504221512 | 85 | 270 | 18.0 | 35.0 | 0.00 | 0.00 | 0.00 | 15 | 996.8 |
| 20260504220012 | 86 | 284 | 28.0 | 35.0 | 0.00 | 0.00 | 0.00 | 15 | 996.9 |
| 20260504214516 | 86 | 261 | 25.0 | 31.0 | 0.00 | 0.00 | 0.00 | 13 | 996.9 |
| 20260504213010 | 86 | 281 | 29.0 | 38.0 | 0.00 | 0.00 | 0.00 | 13 | 997.0 |
| 20260504211503 | 85 | 261 | 28.0 | 38.0 | 0.00 | 0.00 | 0.00 | 13 | 997.3 |
| 20260504210001 | 86 | 284 | 28.0 | 36.0 | 0.00 | 0.00 | 0.00 | 13 | 997.4 |
| 20260504204638 | 86 | 261 | 27.0 | 38.0 | 0.00 | 0.00 | 0.00 | 12 | 997.7 |
| 20260504203059 | 85 | 262 | 23.0 | 40.0 | 0.00 | 0.00 | 0.00 | 14 | 997.8 |
| 20260504201559 | 85 | 254 | 28.0 | 40.0 | 0.00 | 0.00 | 0.00 | 13 | 998.2 |
| 20260504200057 | 85 | 265 | 28.0 | 40.0 | 0.00 | 0.00 | 0.00 | 13 | 998.3 |
| 20260504194555 | 85 | 262 | 27.0 | 42.0 | 0.00 | 0.00 | 0.00 | 15 | 998.6 |
| 20260504193049 | 84 | 277 | 29.0 | 36.0 | 0.00 | 0.00 | 0.00 | 16 | 999.0 |
| 20260504191544 | 83 | 270 | 19.0 | 34.0 | 0.00 | 0.00 | 0.00 | 17 | 999.2 |
| 20260504190047 | 82 | 242 | 22.0 | 35.0 | 0.00 | 0.00 | 0.00 | 21 | 999.4 |
| 20260504184539 | 82 | 273 | 23.0 | 37.0 | 0.00 | 0.00 | 0.00 | 24 | 999.7 |
| 20260504183034 | 81 | 265 | 26.0 | 33.0 | 0.00 | 0.00 | 0.00 | 26 | 999.9 |
| 20260504181551 | 80 | 267 | 23.0 | 29.0 | 0.00 | 0.00 | 0.00 | 26 | 1000.2 |
| 20260504180049 | 79 | 252 | 19.0 | 28.0 | 0.00 | 0.00 | 0.00 | 27 | 1000.5 |
| 20260504174551 | 79 | 279 | 23.0 | 30.0 | 0.00 | 0.00 | 0.00 | 25 | 1000.9 |
| 20260504173046 | 79 | 286 | 20.0 | 30.0 | 0.00 | 0.00 | 0.00 | 28 | 1000.9 |
| 20260504171543 | 79 | 299 | 24.0 | 34.0 | 0.00 | 0.00 | 0.00 | 27 | 1000.9 |
| 20260504081558 | 63 | 16 | 6.0 | 9.0 | 0.00 | 0.00 | 0.00 | 65 | 1001.4 |
| 20260504044527 | 69 | 142 | 15.0 | 20.0 | 0.00 | 0.00 | 0.00 | 49 | 1002.4 |
| 20260504043024 | 70 | 136 | 18.0 | 23.0 | 0.00 | 0.00 | 0.00 | 48 | 1002.4 |
| 20260504041528 | 70 | 139 | 17.0 | 24.0 | 0.00 | 0.00 | 0.00 | 47 | 1002.6 |
| 20260504040024 | 71 | 144 | 17.0 | 22.0 | 0.00 | 0.00 | 0.00 | 46 | 1002.7 |
| 20260504034521 | 71 | 139 | 17.0 | 21.0 | 0.00 | 0.00 | 0.00 | 45 | 1002.8 |
| 20260504033022 | 72 | 138 | 18.0 | 22.0 | 0.00 | 0.00 | 0.00 | 44 | 1002.8 |
| 20260504031532 | 72 | 135 | 18.0 | 22.0 | 0.00 | 0.00 | 0.00 | 43 | 1002.6 |
| 20260504030039 | 73 | 138 | 17.0 | 22.0 | 0.00 | 0.00 | 0.00 | 42 | 1002.4 |
| 20260504024531 | 73 | 133 | 18.0 | 23.0 | 0.00 | 0.00 | 0.00 | 41 | 1002.4 |
| 20260504023032 | 74 | 135 | 16.0 | 22.0 | 0.00 | 0.00 | 0.00 | 41 | 1002.4 |
| 20260504021528 | 74 | 128 | 15.0 | 21.0 | 0.00 | 0.00 | 0.00 | 41 | 1002.5 |
| 20260504020025 | 75 | 134 | 17.0 | 22.0 | 0.00 | 0.00 | 0.00 | 40 | 1002.5 |
| 20260504014522 | 75 | 129 | 13.0 | 17.0 | 0.00 | 0.00 | 0.00 | 38 | 1002.6 |
| 20260504013022 | 76 | 134 | 12.0 | 16.0 | 0.00 | 0.00 | 0.00 | 38 | 1002.6 |
| 20260504011519 | 76 | 121 | 11.0 | 16.0 | 0.00 | 0.00 | 0.00 | 37 | 1002.7 |
| 20260504010017 | 77 | 134 | 10.0 | 16.0 | 0.00 | 0.00 | 0.00 | 37 | 1002.8 |
| 20260504004521 | 77 | 137 | 13.0 | 18.0 | 0.00 | 0.00 | 0.00 | 36 | 1002.8 |
| 20260504003014 | 77 | 135 | 12.0 | 15.0 | 0.00 | 0.00 | 0.00 | 36 | 1003.0 |
| 20260504001516 | 77 | 139 | 9.0 | 13.0 | 0.00 | 0.00 | 0.00 | 36 | 1003.2 |
| 20260504000014 | 77 | 124 | 11.0 | 14.0 | 0.00 | 0.00 | 0.00 | 36 | 1003.2 |